Regional Weather Roundup
Issued by NWS

Home | Current Version | Previous Version | Text Only | Print | Product List | Glossary Off
Versions: 1 2 3 4 5 6 7 8 9 10 11 12 13 14 15 16 17 18 19 20 21 22 23 24 25 26 27 28 29 30 31 32 33 34 35 36 37 38 39 40 41 42 43 44 45 46 47 48 49 50

378
ASUS45 KPSR 240910
RWRAZ

ARIZONA HOURLY REGIONAL WEATHER ROUNDUP
NATIONAL WEATHER SERVICE PHOENIX AZ
200 AM MST MON JUL 24 2017

NOTE: FAIR INDICATES FEW OR NO CLOUDS BELOW 12,000 FEET WITH NO
SIGNIFICANT WEATHER AND/OR OBSTRUCTIONS TO VISIBILITY.

AZZ001>003-036-241000-
NORTHWEST ARIZONA

CITY           SKY/WX    TMP DP  RH WIND       PRES   REMARKS
KINGMAN        PTCLDY    70  67  90 SE7       29.99S
$$

AZZ004>008-015-016-018-241000-
NORTH CENTRAL ARIZONA

CITY           SKY/WX    TMP DP  RH WIND       PRES   REMARKS
GRAND CANYON   CLOUDY    62  57  83 CALM      30.24S
WILLIAMS       MOCLDY    61  57  88 NE5       30.26S
PRESCOTT       CLOUDY    69  63  81 NW7       30.12R
FLAGSTAFF      CLOUDY    58  58 100 CALM      30.27F
PAYSON         CLOUDY    66  66 100 CALM      30.16R
PAGE           CLOUDY    82  53  36 CALM      30.02R
$$

AZZ009>014-017-241000-
NORTHEAST ARIZONA

CITY           SKY/WX    TMP DP  RH WIND       PRES   REMARKS
WINSLOW        LGT RAIN  70  65  84 E15       30.15R
SAINT JOHNS    CLOUDY    63  61  93 SW5       30.20F
WINDOW ROCK    LGT RAIN  61  57  87 NE17      30.30S FOG
SHOW LOW       CLOUDY    63  55  77 NE5       30.25F
$$

AZZ540-542>544-546-548-241000-
GREATER PHOENIX AREA

CITY           SKY/WX    TMP DP  RH WIND       PRES   REMARKS
PHOENIX        CLOUDY    78  72  81 SE7       29.86R
BUCKEYE        CLOUDY    81  72  74 E13G20    29.86R
LUKE AFB       MOCLDY    80  71  73 S8        29.86R
DEER VALLEY    CLOUDY    80  69  69 S7        29.87R
SCOTTSDALE     LGT RAIN  77  72  84 SE3       29.89S
MESA-GATEWAY   CLOUDY    75  72  88 SE5       29.89F
$$

AZZ539-553-241000-
SOUTHWEST MARICOPA COUNTY AND PINAL COUNTY

CITY           SKY/WX    TMP DP  RH WIND       PRES   REMARKS
CASA GRANDE    CLOUDY    78  73  84 E8        29.89F
GILA BEND      FAIR      87  70  55 SE9       29.81F
$$

AZZ503-504-507>509-241000-
SOUTHEAST ARIZONA

CITY           SKY/WX    TMP DP  RH WIND       PRES   REMARKS
TUCSON         PTCLDY    77  71  82 E5        29.99S
DAVIS-MONTHAN  MOCLDY    75  73  93 SE3       29.98S
NOGALES        MOCLDY    68  67  96 N3        30.06F
SIERRA VISTA   MOCLDY    67  65  93 CALM      30.12S
DOUGLAS        MOCLDY    68  67  96 E3        30.08F
SAFFORD        CLOUDY    73  68  84 SW3       30.00F
$$

AZZ532-241000-
SOUTHWEST ARIZONA

CITY           SKY/WX    TMP DP  RH WIND       PRES   REMARKS
YUMA           MOCLDY    88  65  46 S13       29.75F
$$

CAZ041-043-047-048-061-525>527-560>570-241000-
SOUTHERN CALIFORNIA

CITY           SKY/WX    TMP DP  RH WIND       PRES   REMARKS
DOWNTOWN L.A.  CLEAR     69  62  78 CALM      29.89F
L.A. AIRPORT   PTCLDY    68  63  84 VRB3      29.89F
SAN DIEGO      MOCLDY    70  63  78 CALM      29.90F
BURBANK        CLEAR     67  61  81 SE9       29.90S
ONTARIO        MOCLDY    68  62  81 S5        29.91F
RIVERSIDE      CLEAR     67  62  84 W5        29.91F
PALM SPRINGS   PTCLDY    88  56  33 N9        29.82F
EL CENTRO NAS  CLOUDY    83  74  74 S8        29.76F
IMPERIAL       CLOUDY    85  73  67 S12       29.73F
BLYTHE         MOCLDY    90  68  48 CALM      29.77R
NEEDLES        CLEAR     93  62  35 E3        29.81R
$$

NVZ020-UTZ003-241000-
SOUTHERN NEVADA-UTAH

CITY           SKY/WX    TMP DP  RH WIND       PRES   REMARKS
LAS VEGAS      CLOUDY    91  60  35 NE3       29.87R
SALT LAKE CITY PTCLDY    78  48  34 SE6       29.98F
$$

NMZ009-TXZ055-241000-
NEW MEXICO-WEST TEXAS

CITY           SKY/WX    TMP DP  RH WIND       PRES   REMARKS
ALBUQUERQUE    CLOUDY    71  59  65 NW3       30.19F
EL PASO        MOCLDY    71  69  93 N8        30.06F
$$


........................KEY........................
SKY/WX - SKY CONDITION/WEATHER
TMP    - TEMPERATURE IN FAHRENHEIT
DP     - DEW POINT IN FAHRENHEIT
RH     - RELATIVE HUMIDITY IN PERCENT
WIND   - DIRECTION AND SPEED IN MILES PER HOUR (MPH)
VRB    - VARIABLE WIND DIRECTION
PRES   - MEAN SEA LEVEL PRESSURE IN INCHES OF MERCURY
         F - FALLING PRESSURE   R - RISING PRESSURE
         S - STEADY PRESSURE
VSB    - VISIBILITY IN MILES
HX     - HEAT INDEX IN FAHRENHEIT
WCI    - WIND CHILL INDEX IN FAHRENHEIT
TC     - TEMPERATURE IN CELSIUS WHICH IS ALSO KNOWN AS
         TEMPERATURE IN CENTIGRADE
AFB    - AIR FORCE BASE
         LUKE AFB IS LUKE AIR FORCE BASE
         DAVIS-MONTHAN IS DAVIS-MONTHAN AIR FORCE BASE
NAS    - NAVAL AIR STATION
         EL CENTRO NAS IS EL CENTRO NAVAL AIR STATION
N/A    - NOT AVAILABLE





USA.gov is the U.S. government's official web portal to all federal, state and local government web resources and services.